Location: Big Meadows
(38.5260°N, 78.4400°W)
Time: 15:32:46
(UTC-04:00)

Amateur Radio Satellites - All Passes

Search period start: 21 August 2017 15:02
Search period end: 22 August 2017 15:02
Location: Big Meadows, 38.5260°N, 78.4400°W

Satellite Date Start Highest point End Downlink Frequencies (MHz)
Time Altitude Azimuth
BEESAT 3 21 Aug 15:06:59 15:10:46 43° 244° (WSW) 15:14:28 437.485
YUBILEINY 21 Aug 15:14:52 15:21:35 25° 82° (E) 15:28:16 435.215
AO-85 21 Aug 15:16:09 15:20:28 62° 242° (WSW) 15:25:08 145.980
BEESAT 2 21 Aug 15:21:49 15:25:54 81° 59° (ENE) 15:29:53 435.950
UKube-1 21 Aug 15:23:44 15:27:54 50° 287° (WNW) 15:32:03 .
RS-15 21 Aug 15:38:11 15:46:46 21° 344° (NNW) 15:55:18 29.354- 29.394
MOZHAYETS 4 21 Aug 15:45:09 15:48:50 23° 95° (E) 15:52:30
AO-7 21 Aug 15:47:02 15:55:25 86° 71° (ENE) 16:03:50 .
DX 1 21 Aug 15:47:30 15:50:35 19° 294° (WNW) 15:53:38 434.975-435.025
ISS 21 Aug 16:01:18 16:03:51 20° 26° (NNE) 16:06:22 437.550
BEESAT 21 Aug 16:06:07 16:10:42 45° 100° (E) 16:15:15 436.000
nSIGHT-1 21 Aug 16:08:48 16:11:28 23° 28° (NNE) 16:14:09 .
ITAMSAT 1 21 Aug 16:15:28 16:20:37 65° 258° (WSW) 16:25:48 435.822/435.867
Tancredo 1 21 Aug 16:17:39 16:20:32 85° 225° (SW) 16:23:25 437.200
SRMSAT 21 Aug 16:39:06 16:40:28 11° 186° (S) 16:41:50 437.500
ITUPSAT 1 21 Aug 16:40:46 16:45:34 80° 285° (WNW) 16:50:21 437.325
YUBILEINY 21 Aug 17:08:54 17:17:37 65° 280° (W) 17:26:20 435.215
DOVE 4 21 Aug 17:11:14 17:15:59 35° 71° (ENE) 17:20:39 437.250
MOZHAYETS 4 21 Aug 17:21:54 17:25:59 32° 290° (WNW) 17:30:04
LilacSat-2 21 Aug 17:28:10 17:29:53 13° 66° (ENE) 17:31:35 437.200
KKS-1 21 Aug 17:28:14 17:31:47 23° 95° (E) 17:35:20 437.445
XW-2D 21 Aug 17:31:18 17:33:09 13° 67° (ENE) 17:35:00 145.860 - 145.880
ISS 21 Aug 17:37:20 17:40:31 53° 223° (SW) 17:43:42 437.550
XW-2B 21 Aug 17:41:41 17:44:09 17° 68° (ENE) 17:46:38 145.730 - 145.750
CUBESAT XI-V 21 Aug 17:43:04 17:47:48 86° 100° (E) 17:52:30 437.345
AO-7 21 Aug 17:43:42 17:49:01 18° 268° (W) 17:54:23 .
BEESAT 21 Aug 17:44:51 17:48:06 18° 295° (WNW) 17:51:20 436.000
nSIGHT-1 21 Aug 17:44:54 17:47:57 40° 225° (SW) 17:51:00 .
RS-15 21 Aug 17:56:43 18:05:43 23° 21° (NNE) 18:14:26 29.354- 29.394
XW-2C 21 Aug 17:59:54 18:03:09 28° 71° (ENE) 18:06:25 145.795 - 145.815
STARS 21 Aug 18:04:43 18:08:15 24° 96° (E) 18:11:45 437.465
XW-2F 21 Aug 18:11:11 18:14:39 37° 73° (ENE) 18:18:08 145.980 - 146.000
CUTE-I 21 Aug 18:29:26 18:34:43 63° 73° (ENE) 18:40:00 437.470
HO-68 21 Aug 18:30:28 18:36:24 29° 62° (ENE) 18:42:21 435.675
KAITUO 1B 21 Aug 18:34:50 18:38:28 60° 76° (ENE) 18:42:09 145.475/437.950
O/OREOS (USA 219) 21 Aug 18:41:05 18:43:26 14° 55° (NE) 18:45:47 437.305
DOVE 4 21 Aug 18:49:09 18:53:37 27° 265° (W) 18:58:01 437.250
CUTE 1.7 + AOD 2 21 Aug 18:50:18 18:53:30 21° 68° (ENE) 18:56:43 437.475
LilacSat-2 21 Aug 19:00:12 19:03:46 40° 262° (W) 19:07:22 437.200
XW-2D 21 Aug 19:03:28 19:06:58 38° 262° (W) 19:10:30 145.860 - 145.880
KKS-1 21 Aug 19:04:30 19:08:18 29° 291° (WNW) 19:12:06 437.445
NUDT-PHONESAT 21 Aug 19:06:30 19:10:02 49° 260° (W) 19:13:38 437.300
CUBEBUG 2 21 Aug 19:09:52 19:12:47 18° 68° (ENE) 19:15:40 437.445
YUBILEINY 21 Aug 19:13:58 19:16:19 11° 302° (WNW) 19:18:40 435.215
XW-2B 21 Aug 19:14:49 19:18:05 29° 263° (W) 19:21:24 145.730 - 145.750
XW-2C 21 Aug 19:34:55 19:37:21 17° 267° (W) 19:39:49 145.795 - 145.815
SEEDS 21 Aug 19:35:39 19:39:37 42° 73° (ENE) 19:43:37 437.485
ZACube-1 21 Aug 19:40:21 19:41:52 12° 65° (ENE) 19:43:22 437.345
STARS 21 Aug 19:40:49 19:44:32 28° 291° (WNW) 19:48:13 437.465
XW-2F 21 Aug 19:47:14 19:48:55 13° 268° (W) 19:50:36 145.980 - 146.000
XW-2A 21 Aug 19:55:33 19:58:48 59° 76° (ENE) 20:02:06 145.665 - 145.685
AO-73 21 Aug 19:59:39 20:02:24 18° 67° (ENE) 20:05:09 145.935
RS-15 21 Aug 20:09:47 20:21:41 58° 51° (NE) 20:32:54 29.354- 29.394
CUTE-I 21 Aug 20:12:08 20:15:09 15° 268° (W) 20:18:10 437.470
STRAND 1 21 Aug 20:12:36 20:17:22 39° 98° (E) 20:22:07 437.568
HO-68 21 Aug 20:16:48 20:23:45 52° 259° (W) 20:30:42 435.675
AAUSAT CUBESAT 2 21 Aug 20:18:27 20:22:32 59° 75° (ENE) 20:26:39 437.432
O/OREOS (USA 219) 21 Aug 20:18:45 20:23:14 61° 252° (WSW) 20:27:44 437.305
CUTE 1.7 + AOD 2 21 Aug 20:25:25 20:29:08 30° 264° (W) 20:32:52 437.475
UWE-3 21 Aug 20:35:42 20:39:54 81° 258° (WSW) 20:44:04 435.000/436.395/437.385
Oscar 11 21 Aug 20:42:14 20:46:15 40° 72° (ENE) 20:50:17 .
CUBEBUG 2 21 Aug 20:45:15 20:49:09 34° 262° (W) 20:53:01 437.445
SEEDS 21 Aug 21:13:10 21:15:29 14° 268° (W) 21:17:48 437.485
ZACube-1 21 Aug 21:13:36 21:17:39 54° 260° (W) 21:21:43 437.345
DELFI C3 21 Aug 21:17:05 21:20:10 22° 69° (ENE) 21:23:17 145.870
AO-73 21 Aug 21:34:36 21:38:22 34° 263° (W) 21:42:09 145.935
EO-88 21 Aug 21:44:53 21:47:53 25° 71° (ENE) 21:50:53 145.990 - 145.960
FO-29 21 Aug 21:48:51 21:53:18 25° 94° (E) 21:57:31 435.910
STRAND 1 21 Aug 21:52:19 21:56:17 23° 294° (WNW) 22:00:16 437.568
UNISAT 6 21 Aug 22:11:59 22:14:49 17° 94° (E) 22:17:41 437.425
Oscar 11 21 Aug 22:19:54 22:22:32 16° 267° (W) 22:25:11 .
SO-50 21 Aug 22:21:11 22:24:04 17° 110° (ESE) 22:26:57 436.795
RS-15 21 Aug 22:22:57 22:33:38 41° 253° (WSW) 22:43:51 29.354- 29.394
Max Valier Satellite 21 Aug 22:25:47 22:29:25 67° 260° (W) 22:33:03 145.860
PCSat 21 Aug 22:44:57 22:50:14 57° 113° (ESE) 22:55:33 145.827
TIGRISAT 21 Aug 22:45:50 22:49:51 37° 98° (E) 22:53:56 435.000
DELFI C3 21 Aug 22:51:27 22:54:47 25° 264° (W) 22:58:09 145.870
LO-87 21 Aug 23:11:17 23:14:36 36° 73° (ENE) 23:17:55 145.935 - 145.965
EO-88 21 Aug 23:18:59 23:21:30 18° 266° (W) 23:24:02 145.990 - 145.960
ESTCUBE 1 21 Aug 23:27:19 23:31:32 40° 72° (ENE) 23:35:47 437.505/2401.250
SPROUT 21 Aug 23:33:31 23:34:35 11° 63° (ENE) 23:35:38 437.525
FO-29 21 Aug 23:33:33 23:38:31 35° 292° (WNW) 23:43:11 435.910
AIST 2D 21 Aug 23:34:31 23:36:23 14° 93° (E) 23:38:13 435.315
PRISM 21 Aug 23:34:41 23:38:49 80° 282° (WNW) 23:42:53 437.425
UNISAT 6 21 Aug 23:47:38 23:51:39 38° 288° (WNW) 23:55:43 437.425
SO-50 21 Aug 23:59:46 00:04:08 47° 305° (NW) 00:08:30 436.795
NANOSAT C BR1 22 Aug 00:07:21 00:09:21 13° 92° (E) 00:11:21 145.865
POLYITAN 1 22 Aug 00:12:19 00:15:07 17° 94° (E) 00:17:55 437.675
TIGRISAT 22 Aug 00:23:19 00:26:16 18° 293° (WNW) 00:29:14 435.000
M-CUBED/EXP-1 PRIME 22 Aug 00:24:08 00:27:59 32° 101° (E) 00:31:34 437.505
QB50P2 22 Aug 00:26:50 00:30:29 28° 96° (E) 00:34:06 145.880/145.840
EO-79 22 Aug 00:27:15 00:30:47 25° 96° (E) 00:34:16 145.935-145.965
PCSat 22 Aug 00:29:52 00:33:59 22° 311° (NW) 00:38:08 145.827
NO-84 22 Aug 00:41:54 00:44:17 22° 129° (SE) 00:46:36 435.350 FM
LO-87 22 Aug 00:46:50 00:48:09 12° 268° (W) 00:49:29 145.935 - 145.965
DUCHIFAT 1 22 Aug 00:55:38 00:59:38 42° 99° (E) 01:03:36 145.980
DX 1 22 Aug 01:04:50 01:08:30 27° 69° (ENE) 01:12:10 434.975-435.025
ESTCUBE 1 22 Aug 01:05:30 01:08:29 17° 267° (W) 01:11:28 437.505/2401.250
SPROUT 22 Aug 01:05:41 01:09:54 64° 258° (WSW) 01:14:08 437.525
VELOX 1 22 Aug 01:05:41 01:10:08 82° 255° (WSW) 01:14:38 145.980
AIST 2D 22 Aug 01:06:28 01:09:38 30° 287° (WNW) 01:12:47 435.315
50 SAT 22 Aug 01:21:54 01:25:13 52° 75° (ENE) 01:28:34 437.505
Oscar 19 22 Aug 01:30:30 01:33:01 13° 91° (E) 01:35:30 437.125/150
NANOSAT C BR1 22 Aug 01:41:16 01:45:17 46° 287° (WNW) 01:49:17 145.865
POLYITAN 1 22 Aug 01:47:09 01:50:59 35° 289° (WNW) 01:54:50 437.675
M-CUBED/EXP-1 PRIME 22 Aug 01:58:54 02:02:09 21° 299° (WNW) 02:05:13 437.505
QB50P2 22 Aug 02:02:50 02:06:06 22° 292° (WNW) 02:09:22 145.880/145.840
EO-79 22 Aug 02:03:02 02:06:25 24° 291° (WNW) 02:09:48 145.935-145.965
ITUPSAT 1 22 Aug 02:12:23 02:13:27 11° 61° (ENE) 02:14:31 437.325
UKube-1 22 Aug 02:16:07 02:20:25 74° 257° (WSW) 02:24:46 .
NO-84 22 Aug 02:19:12 02:21:35 22° 323° (NW) 02:23:55 435.350 FM
BUGSAT 1 22 Aug 02:26:47 02:30:44 59° 286° (WNW) 02:34:42 437.445
DUCHIFAT 1 22 Aug 02:32:32 02:34:55 15° 294° (WNW) 02:37:18 145.980
DX 1 22 Aug 02:40:57 02:44:34 25° 264° (W) 02:48:13 434.975-435.025
MOZHAYETS 4 22 Aug 02:46:05 02:49:18 19° 66° (ENE) 02:52:31
Gurwin Techsat 1B 22 Aug 02:50:27 02:55:40 54° 100° (E) 03:00:51 435.225
Oscar 19 22 Aug 03:07:35 03:12:45 67° 286° (WNW) 03:17:54 437.125/150
BEESAT 22 Aug 03:10:56 03:15:26 44° 71° (ENE) 03:19:57 436.000
YUBILEINY 22 Aug 03:20:50 03:29:26 60° 79° (E) 03:37:58 435.215
ITUPSAT 1 22 Aug 03:45:49 03:50:34 81° 257° (WSW) 03:55:21 437.325
AO-7 22 Aug 03:51:03 03:58:10 31° 97° (E) 04:05:13 .
MOZHAYETS 4 22 Aug 04:21:55 04:26:09 38° 262° (W) 04:30:25
KKS-1 22 Aug 04:25:12 04:28:24 20° 66° (ENE) 04:31:36 437.445
ITAMSAT 1 22 Aug 04:29:44 04:34:46 49° 100° (E) 04:39:45 435.822/435.867
Gurwin Techsat 1B 22 Aug 04:31:33 04:35:09 19° 296° (WNW) 04:38:44 435.225
CUBESAT XI-V 22 Aug 04:44:29 04:49:05 70° 76° (ENE) 04:53:46 437.345
BEESAT 22 Aug 04:50:15 04:53:23 17° 267° (W) 04:56:33 436.000
BEESAT 3 22 Aug 04:54:44 04:58:28 40° 115° (ESE) 05:02:16 437.485
STARS 22 Aug 05:00:18 05:03:23 19° 66° (ENE) 05:06:27 437.465
BEESAT 2 22 Aug 05:12:26 05:15:17 19° 111° (ESE) 05:18:10 435.950
YUBILEINY 22 Aug 05:18:42 05:25:33 27° 277° (W) 05:32:24 435.215
AO-85 22 Aug 05:29:32 05:33:26 57° 117° (ESE) 05:37:15 145.980
AO-7 22 Aug 05:43:10 05:51:14 57° 294° (WNW) 05:59:14 .
KKS-1 22 Aug 06:00:32 06:04:40 37° 262° (W) 06:08:50 437.445
ITAMSAT 1 22 Aug 06:10:12 06:13:49 20° 296° (WNW) 06:17:27 435.822/435.867
CUBESAT XI-V 22 Aug 06:26:05 06:26:55 10° 271° (W) 06:27:45 437.345
BEESAT 3 22 Aug 06:33:19 06:36:12 19° 312° (NW) 06:39:06 437.485
LilacSat-2 22 Aug 06:34:59 06:38:02 22° 95° (E) 06:41:04 437.200
STARS 22 Aug 06:35:20 06:39:26 37° 262° (W) 06:43:31 437.465
XW-2D 22 Aug 06:37:27 06:40:31 22° 95° (E) 06:43:34 145.860 - 145.880
NUDT-PHONESAT 22 Aug 06:38:58 06:41:19 16° 93° (E) 06:43:39 437.300
XW-2B 22 Aug 06:48:17 06:51:41 29° 97° (E) 06:55:03 145.730 - 145.750
CUTE-I 22 Aug 06:48:24 06:52:54 27° 96° (E) 06:57:22 437.470
DOVE 4 22 Aug 06:49:06 06:53:36 79° 284° (WNW) 06:57:51 437.250
BEESAT 2 22 Aug 06:49:07 06:52:46 34° 307° (NW) 06:56:30 435.950
SO-50 22 Aug 06:53:12 06:55:31 14° 42° (NE) 06:57:50 436.795
XW-2C 22 Aug 07:07:09 07:10:55 52° 100° (E) 07:14:40 145.795 - 145.815
AO-85 22 Aug 07:12:13 07:14:09 13° 316° (NW) 07:16:04 145.980
NO-84 22 Aug 07:16:44 07:17:43 11° 29° (NNE) 07:18:43 435.350 FM
XW-2F 22 Aug 07:18:07 07:21:57 70° 102° (ESE) 07:25:45 145.980 - 146.000
STRAND 1 22 Aug 07:26:56 07:31:50 48° 71° (ENE) 07:36:44 437.568
PCSat 22 Aug 07:34:22 07:39:19 34° 54° (NE) 07:44:11 145.827
AO-7 22 Aug 07:39:35 07:42:10 12° 314° (NW) 07:44:46 .
KAITUO 1B 22 Aug 07:40:56 07:44:44 75° 283° (WNW) 07:48:31 145.475/437.950
HO-68 22 Aug 07:46:08 07:52:30 34° 97° (E) 07:58:50 435.675
FO-29 22 Aug 08:00:52 08:04:28 15° 59° (ENE) 08:07:55 435.910
AAUSAT CUBESAT 2 22 Aug 08:05:05 08:05:24 10° 90° (E) 08:05:42 437.432
LilacSat-2 22 Aug 08:09:05 08:12:13 24° 290° (WNW) 08:15:20 437.200
CUTE 1.7 + AOD 2 22 Aug 08:10:56 08:15:07 49° 99° (E) 08:19:16 437.475
XW-2D 22 Aug 08:11:32 08:14:35 23° 290° (WNW) 08:17:38 145.860 - 145.880
NUDT-PHONESAT 22 Aug 08:11:55 08:15:14 30° 288° (WNW) 08:18:32 437.300
XW-2B 22 Aug 08:23:00 08:25:37 18° 292° (WNW) 08:28:15 145.730 - 145.750
UWE-3 22 Aug 08:26:52 08:30:11 22° 95° (E) 08:33:33 435.000/436.395/437.385
CUTE-I 22 Aug 08:28:11 08:32:56 35° 291° (WNW) 08:37:41 437.470
SO-50 22 Aug 08:31:58 08:36:33 83° 240° (WSW) 08:41:10 436.795
CUBEBUG 2 22 Aug 08:36:33 08:40:40 49° 100° (E) 08:44:51 437.445
Tancredo 1 22 Aug 08:42:49 08:45:34 41° 136° (SE) 08:48:21 437.200
XW-2C 22 Aug 08:43:46 08:44:37 11° 295° (WNW) 08:45:26 145.795 - 145.815
nSIGHT-1 22 Aug 08:48:15 08:49:32 12° 128° (SE) 08:50:49 .
XW-2A 22 Aug 08:50:54 08:54:19 81° 102° (ESE) 08:57:43 145.665 - 145.685
O/OREOS (USA 219) 22 Aug 08:51:54 08:54:53 18° 100° (E) 08:57:53 437.305
NO-84 22 Aug 08:52:23 08:55:27 88° 224° (SW) 08:58:46 435.350 FM
SEEDS 22 Aug 08:55:56 09:00:12 79° 282° (WNW) 09:04:26 437.485
ZACube-1 22 Aug 09:02:59 09:06:47 30° 97° (E) 09:10:39 437.345
STRAND 1 22 Aug 09:07:47 09:11:14 18° 267° (W) 09:14:42 437.568
UNISAT 6 22 Aug 09:10:36 09:12:34 13° 65° (ENE) 09:14:33 437.425
PCSat 22 Aug 09:17:51 09:22:36 32° 251° (WSW) 09:27:20 145.827
AO-73 22 Aug 09:23:01 09:27:10 45° 99° (E) 09:31:23 145.935
HO-68 22 Aug 09:33:36 09:40:16 44° 294° (WNW) 09:46:57 435.675
AAUSAT CUBESAT 2 22 Aug 09:37:04 09:41:11 58° 285° (WNW) 09:45:16 437.432
FO-29 22 Aug 09:41:00 09:48:37 79° 75° (ENE) 09:55:31 435.910
TIGRISAT 22 Aug 09:43:22 09:47:00 27° 70° (ENE) 09:50:36 435.000
CUTE 1.7 + AOD 2 22 Aug 09:48:17 09:50:30 14° 295° (WNW) 09:52:41 437.475
Max Valier Satellite 22 Aug 09:58:46 10:00:14 12° 92° (E) 10:01:40 145.860
UWE-3 22 Aug 10:02:55 10:06:37 29° 289° (WNW) 10:10:24 435.000/436.395/437.385
Oscar 11 22 Aug 10:06:20 10:10:42 79° 283° (WNW) 10:15:03 .
CUBEBUG 2 22 Aug 10:14:46 10:16:53 14° 294° (WNW) 10:19:00 437.445
ISS 22 Aug 10:15:51 10:19:06 79° 319° (NW) 10:22:24 437.550
Tancredo 1 22 Aug 10:18:40 10:20:52 19° 333° (NNW) 10:23:04 437.200
PRISM 22 Aug 10:21:57 10:26:01 57° 74° (ENE) 10:30:07 437.425
nSIGHT-1 22 Aug 10:22:17 10:25:31 63° 322° (NW) 10:28:46 .
DELFI C3 22 Aug 10:29:03 10:32:49 40° 98° (E) 10:36:33 145.870
O/OREOS (USA 219) 22 Aug 10:29:47 10:33:56 38° 296° (WNW) 10:38:09 437.305
RS-15 22 Aug 10:30:41 10:41:39 42° 107° (ESE) 10:52:45 29.354- 29.394
ZACube-1 22 Aug 10:39:34 10:42:53 22° 291° (WNW) 10:46:16 437.345
UNISAT 6 22 Aug 10:44:36 10:48:50 53° 260° (W) 10:53:02 437.425
EO-88 22 Aug 10:47:45 10:51:13 39° 98° (E) 10:54:39 145.990 - 145.960
JUGNU 22 Aug 10:48:04 10:48:26 10° 172° (S) 10:48:48 437.505
AO-73 22 Aug 11:00:30 11:03:01 15° 294° (WNW) 11:05:34 145.935
POLYITAN 1 22 Aug 11:05:05 11:06:25 11° 64° (ENE) 11:07:46 437.675
M-CUBED/EXP-1 PRIME 22 Aug 11:07:25 11:11:30 35° 65° (ENE) 11:15:44 437.505
QB50P2 22 Aug 11:18:36 11:21:29 18° 67° (ENE) 11:24:22 145.880/145.840
EO-79 22 Aug 11:18:58 11:21:38 17° 67° (ENE) 11:24:19 145.935-145.965
TIGRISAT 22 Aug 11:20:10 11:23:38 23° 265° (W) 11:27:04 435.000
FO-29 22 Aug 11:29:07 11:34:02 18° 268° (W) 11:38:44 435.910
Max Valier Satellite 22 Aug 11:30:44 11:34:13 38° 287° (WNW) 11:37:41 145.860
AIST 2D 22 Aug 11:38:35 11:42:01 67° 77° (ENE) 11:45:30 435.315
DUCHIFAT 1 22 Aug 11:46:08 11:49:37 26° 70° (ENE) 11:53:05 145.980
ISS 22 Aug 11:54:02 11:56:02 15° 339° (NNW) 11:58:02 437.550
nSIGHT-1 22 Aug 12:00:41 12:02:25 14° 341° (NNW) 12:04:09 .
PRISM 22 Aug 12:00:45 12:01:36 11° 269° (W) 12:02:28 437.425
DELFI C3 22 Aug 12:05:06 12:07:12 14° 294° (WNW) 12:09:17 145.870
LO-87 22 Aug 12:12:27 12:15:56 56° 100° (E) 12:19:24 145.935 - 145.965
EO-88 22 Aug 12:22:55 12:24:30 12° 294° (WNW) 12:26:06 145.990 - 145.960
NANOSAT C BR1 22 Aug 12:31:13 12:35:24 79° 258° (WSW) 12:39:36 145.865
JUGNU 22 Aug 12:34:27 12:36:32 12° 182° (S) 12:38:35 437.505
POLYITAN 1 22 Aug 12:37:32 12:41:41 59° 260° (W) 12:45:49 437.675
RS-15 22 Aug 12:41:37 12:53:41 60° 308° (NW) 13:05:54 29.354- 29.394
M-CUBED/EXP-1 PRIME 22 Aug 12:42:20 12:45:54 23° 261° (W) 12:49:36 437.505
Oscar 19 22 Aug 12:45:43 12:49:09 18° 64° (ENE) 12:52:37 437.125/150
QB50P2 22 Aug 12:53:09 12:57:00 34° 262° (W) 13:00:51 145.880/145.840
EO-79 22 Aug 12:53:10 12:57:05 38° 262° (W) 13:01:00 145.935-145.965
SPROUT 22 Aug 12:53:11 12:56:33 23° 95° (E) 12:59:53 437.525
ESTCUBE 1 22 Aug 12:57:22 13:01:55 74° 285° (WNW) 13:06:26 437.505/2401.250
VELOX 1 22 Aug 12:57:52 13:01:09 20° 94° (E) 13:04:25 145.980
BEESAT 3 22 Aug 13:13:21 13:16:02 17° 47° (NE) 13:18:40 437.485
BUGSAT 1 22 Aug 13:14:28 13:18:33 75° 76° (ENE) 13:22:36 437.445
DUCHIFAT 1 22 Aug 13:21:52 13:25:12 23° 264° (W) 13:28:33 145.980
BEESAT 2 22 Aug 13:33:00 13:33:12 10° 41° (NE) 13:33:23 435.950
AO-85 22 Aug 14:01:15 14:05:13 34° 53° (NE) 14:09:26 145.980
UKube-1 22 Aug 14:05:16 14:08:25 20° 95° (E) 14:11:33 .
Gurwin Techsat 1B 22 Aug 14:09:59 14:15:17 75° 75° (ENE) 14:20:36 435.225
50 SAT 22 Aug 14:17:05 14:20:26 64° 102° (ESE) 14:23:45 437.505
Oscar 19 22 Aug 14:23:01 14:28:01 52° 260° (W) 14:33:05 437.125/150
SPROUT 22 Aug 14:28:48 14:32:24 27° 290° (WNW) 14:35:59 437.525
DX 1 22 Aug 14:29:30 14:33:49 59° 101° (E) 14:38:04 434.975-435.025
YUBILEINY 22 Aug 14:30:15 14:32:56 12° 75° (ENE) 14:35:37 435.215
VELOX 1 22 Aug 14:33:41 14:37:39 33° 290° (WNW) 14:41:34 145.980
SRMSAT 22 Aug 14:37:15 14:39:13 12° 177° (S) 14:41:10 437.500
BEESAT 3 22 Aug 14:50:01 14:53:48 43° 245° (WSW) 14:57:31 437.485
